This demonstration page uses our WeatherBlox Daily Observations layout. Learn more.

Left ArrowRight Arrow

Hourly Observations for October 17, 2015

Temp ( °F °C ) Dew Point ( °F °C ) Humidity (%) Winds ( mph kmh ) Pressure ( in mb ) Visibility ( mi km ) Precip ( " mm )
12:15 am 00:15 Clear 45 7.1 28 -2 53 53 SSE 7 11 30.36 1028 10 16 N/A
12:35 am 00:35 Clear 44 6.8 28 -2 54 54 SE 7 11 30.39 1029 10 16 N/A
12:55 am 00:55 Clear 46 7.6 28 -2.5 49 49 SSE 8 13 30.36 1028 10 16 N/A
1:15 am 01:15 Clear 46 7.6 28 -2.5 49 49 SE 9 15 30.36 1028 10 16 N/A
1:35 am 01:35 Clear 45 7.1 28 -2.4 51 51 SSE 7 11 30.36 1028 10 16 N/A
1:55 am 01:55 Clear 42 5.7 28 -2 58 58 SSE 6 9 30.39 1029 10 16 N/A
2:15 am 02:15 Clear 41 4.8 29 -1.9 62 62 SSE 7 11 30.39 1029 10 16 N/A
2:35 am 02:35 Clear 42 5.6 29 -1.7 60 60 SSE 8 13 30.39 1029 10 16 N/A
2:55 am 02:55 Clear 42 5.6 28 -2 58 58 SE 6 9 30.39 1029 10 16 N/A
3:15 am 03:15 Clear 42 5.5 28 -2.1 58 58 SE 6 9 30.39 1029 10 16 N/A
3:35 am 03:35 Clear 41 5.2 28 -2 60 60 SE 6 9 30.39 1029 10 16 N/A
3:55 am 03:55 Clear 40 4.6 29 -1.7 64 64 SE 6 9 30.39 1029 10 16 N/A
4:15 am 04:15 Clear 40 4.7 29 -1.6 64 64 SE 7 11 30.39 1029 10 16 N/A
4:35 am 04:35 Clear 41 5 29 -1.7 62 62 SE 6 9 30.39 1029 10 16 N/A
4:55 am 04:55 Clear 41 5 29 -1.6 63 63 SE 6 9 30.39 1029 10 16 N/A
5:15 am 05:15 Clear 39 4.1 29 -1.7 66 66 ESE 5 7 30.39 1029 10 16 N/A
5:35 am 05:35 Clear 35 1.8 29 -1.7 78 78 SE 3 6 30.42 1030 10 16 N/A
5:55 am 05:55 Clear 37 2.7 29 -1.9 72 72 ESE 3 6 30.42 1030 10 16 N/A
6:15 am 06:15 Clear 35 1.7 29 -1.6 79 79 ESE 6 9 30.42 1030 10 16 N/A
6:35 am 06:35 Clear 34 1.1 29 -1.7 82 82 E 5 7 30.42 1030 10 16 N/A
6:55 am 06:55 Clear 34 0.9 29 -1.5 84 84 E 5 7 30.42 1030 10 16 N/A
7:15 am 07:15 Clear 33 0.5 29 -1.6 86 86 E 5 7 30.42 1030 10 16 N/A
7:35 am 07:35 Clear 33 0.6 29 -1.8 84 84 E 5 7 30.42 1030 10 16 N/A
7:55 am 07:55 Sunny 32 0.2 29 -1.6 88 88 E 5 7 30.45 1031 10 16 N/A
8:15 am 08:15 Sunny 34 1 30 -1.3 85 85 E 3 6 30.42 1030 10 16 N/A
8:35 am 08:35 Sunny 37 2.5 32 -0.2 83 83 SE 7 11 30.42 1030 10 16 N/A
8:55 am 08:55 Sunny 40 4.7 32 0 72 72 ESE 6 9 30.39 1029 10 16 N/A
9:15 am 09:15 Sunny 43 6.1 32 0 65 65 SE 6 9 30.39 1029 10 16 N/A
9:35 am 09:35 Sunny 46 7.5 33 0.6 62 62 SE 5 7 30.36 1028 10 16 N/A
9:55 am 09:55 Sunny 50 10.1 34 1 54 54 SSE 13 20 30.36 1028 10 16 N/A
10:15 am 10:15 Sunny 54 12.1 33 0.5 45 45 SSE 10 17 30.33 1027 10 16 N/A
10:35 am 10:35 Sunny 56 13.6 33 0.4 41 41 S 13 20 30.30 1026 10 16 N/A
10:55 am 10:55 Sunny 58 14.3 32 0 38 38 S 18 30 30.30 1026 10 16 N/A
11:15 am 11:15 Sunny 59 15.2 32 0.2 36 36 S 15 24 30.30 1026 10 16 N/A
11:35 am 11:35 Partly Cloudy 58 14.6 32 0 37 37 S 18 30 30.30 1026 10 16 N/A
11:55 am 11:55 Mostly Cloudy 58 14.5 33 0.3 38 38 S 16 26 30.30 1026 10 16 N/A
12:15 pm 12:15 Cloudy 58 14.7 32 0.2 37 37 SSE 17 28 30.30 1026 10 16 N/A
12:35 pm 12:35 Cloudy 59 15 32 0.2 37 37 S 17 28 30.30 1026 10 16 N/A
12:55 pm 12:55 Mostly Cloudy 61 16 32 0.1 34 34 SSE 17 28 30.24 1024 10 16 N/A
1:15 pm 13:15 Partly Cloudy 62 16.5 32 -0.1 33 33 S 17 28 30.24 1024 10 16 N/A
1:35 pm 13:35 Sunny 63 17.2 33 0.5 33 33 S 17 28 30.24 1024 10 16 N/A
1:55 pm 13:55 Sunny 64 17.5 32 0.1 31 31 SSE 20 31 30.24 1024 10 16 N/A
2:15 pm 14:15 Sunny 64 18 33 0.4 31 31 S 14 22 30.21 1023 10 16 N/A
2:35 pm 14:35 Sunny 65 18.3 32 0.1 29 29 S 18 30 30.21 1023 10 16 N/A
2:55 pm 14:55 Sunny 65 18.3 32 0.1 29 29 SSE 18 30 30.21 1023 10 16 N/A
3:15 pm 15:15 Sunny 65 18.5 32 0.1 29 29 SSE 16 26 30.15 1021 10 16 N/A
3:35 pm 15:35 Sunny 65 18.4 33 0.3 30 30 SSE 20 31 30.18 1022 10 16 N/A
3:55 pm 15:55 Sunny 65 18.3 32 0.2 30 30 SSE 18 30 30.18 1022 10 16 N/A
4:15 pm 16:15 Sunny 65 18.1 33 0.6 31 31 S 16 26 30.18 1022 10 16 N/A
4:35 pm 16:35 Sunny 64 18 33 0.4 31 31 SSE 17 28 30.18 1022 10 16 N/A
4:55 pm 16:55 Sunny 64 17.7 32 0.2 31 31 SSE 17 28 30.18 1022 10 16 N/A
5:15 pm 17:15 Sunny 64 17.5 32 0 31 31 SSE 16 26 30.18 1022 10 16 N/A
5:35 pm 17:35 Sunny 63 17.1 32 0 32 32 S 16 26 30.18 1022 10 16 N/A
5:55 pm 17:55 Sunny 61 16.3 32 0 33 33 SSE 17 28 30.18 1022 10 16 N/A
6:15 pm 18:15 Sunny 60 15.5 31 -0.4 34 34 SSE 15 24 30.18 1022 10 16 N/A
6:35 pm 18:35 Sunny 58 14.7 31 -0.3 36 36 SSE 12 19 30.21 1023 10 16 N/A
6:55 pm 18:55 Sunny 57 13.7 31 -0.5 38 38 SSE 13 20 30.21 1023 10 16 N/A
7:15 pm 19:15 Clear 56 13.2 32 -0.2 40 40 SSE 10 17 30.21 1023 10 16 N/A
7:35 pm 19:35 Clear 54 12.1 32 0 44 44 SSE 13 20 30.21 1023 10 16 N/A
7:55 pm 19:55 Clear 53 11.5 32 0 45 45 SSE 10 17 30.21 1023 10 16 N/A
8:15 pm 20:15 Clear 51 10.7 32 0 48 48 SSE 10 17 30.24 1024 10 16 N/A
8:35 pm 20:35 Clear 51 10.5 32 0 49 49 SSE 10 17 30.24 1024 10 16 N/A
8:55 pm 20:55 Clear 50 10 32 0 50 50 SSE 12 19 30.24 1024 10 16 N/A
9:15 pm 21:15 Clear 49 9.7 32 0 51 51 SSE 10 17 30.24 1024 10 16 N/A
9:35 pm 21:35 Clear 49 9.2 32 0 53 53 SSE 10 17 30.24 1024 10 16 N/A
9:55 pm 21:55 Clear 48 9 32 0 54 54 SSE 10 17 30.24 1024 10 16 N/A
10:15 pm 22:15 Clear 48 8.9 32 0 54 54 SE 10 17 30.24 1024 10 16 N/A
10:35 pm 22:35 Clear 47 8.6 32 0 55 55 SE 9 15 30.24 1024 10 16 N/A
10:55 pm 22:55 Clear 47 8.2 32 0 57 57 SE 9 15 30.27 1025 10 16 N/A
11:15 pm 23:15 Clear 46 7.9 32 0 58 58 SE 10 17 30.27 1025 10 16 N/A
11:35 pm 23:35 Clear 46 7.9 32 0 58 58 SE 9 15 30.27 1025 10 16 N/A
11:55 pm 23:55 Clear 45 7.4 33 0.3 61 61 SSE 8 13 30.27 1025 10 16 N/A

Powered by AerisWeather